Content
SEND FEEDBACK

Daily
Averages
Monthly
Summary
United States of America

ANN ARBOR, MICHIGAN


Home > North America > United States > Michigan
Elevation: 231 meters     Latitude: 42 17N     Longitude: 083 43W

WEATHER
 
SELECT A DAY
Number of Records: 208,181;   Date Range: 1/1/95 - 11/27/14
 
SHARE

PRINT THIS DATA

[ ← Previous Day ]
WEATHER ALMANAC - 14 JUNE, 2013
[ Next Day → ]
[ °F ]   °C
Weather ElementAverageHighLow
Temperature19.5 °C25 °C (4:53 pm)11.7 °C (11:53 pm)
Dewpoint12.2 °C13.9 °C (1:53 am)10 °C (7:53 pm)
Humidity65 %93 % (11:53 pm)40 % (5:53 pm)
Barometer1016.6 hPa1018.3 hPa (10:53 am)1013.9 hPa (2:53 am)
Wind Speed9.8 km/h18.5 km/h (10:53 am)
Weather ElementAverage
Visibility16.1 km
Wind DirectionSSW (203 °)

Weather ElementTotal
Precipitation---
Growing Degree Days8.4 (Base 10)
Averaged from 23 records on 14 June, 2013
WEATHER CONDITIONS BREAKOUT
WIND DIRECTION BREAKOUT
WEATHER BY HOUR - 14 JUNE, 2013
[ °F ]   °C
Local TimeTemperatureDewpointHumidityBarometerVisibilityWind DirectionWind SpeedGust SpeedPrecipitationEventsConditions
1:53 AM17.8 °C13.9 °C78 %1014.2 hPa16.1 kmNorth (360°)11.1 km/hMostly Cloudy
2:53 AM17.2 °C13.3 °C78 %1013.9 hPa16.1 kmNorth (350°)9.3 km/hClear
3:53 AM16.1 °C13.3 °C83 %1013.9 hPa16.1 kmNorth (360°)13 km/hClear
4:53 AM16.1 °C13.3 °C83 %1014.6 hPa16.1 kmNNW (340°)9.3 km/hScattered Clouds
5:53 AM15.6 °C13.3 °C86 %1014.9 hPa16.1 kmNNW (340°)9.3 km/hScattered Clouds
6:53 AM15.6 °C12.8 °C83 %1015.6 hPa16.1 kmNorth (360°)11.1 km/hClear
7:53 AM16.7 °C11.7 °C72 %1016.3 hPa16.1 kmNorth (350°)14.8 km/hClear
8:53 AM17.8 °C11.7 °C67 %1016.9 hPa16.1 kmNNE (20°)14.8 km/hClear
9:53 AM19.4 °C12.2 °C63 %1017.6 hPa16.1 kmNorth (10°)14.8 km/hClear
10:53 AM20.6 °C12.8 °C61 %1018.3 hPa16.1 kmNNW (340°)18.5 km/hClear
11:53 AM21.7 °C12.8 °C57 %1017.9 hPa16.1 kmNNW (340°)14.8 km/hClear
12:53 PM22.2 °C12.8 °C55 %1018.3 hPa16.1 kmNorth (360°)14.8 km/hPartly Cloudy
1:53 PM23.3 °C12.8 °C52 %1017.6 hPa16.1 kmNorth (10°)14.8 km/hClear
2:53 PM23.9 °C12.2 °C48 %1017.6 hPa16.1 kmNE (50°)13 km/hClear
3:53 PM24.4 °C12.2 °C46 %1016.9 hPa16.1 kmNorth (10°)7.4 km/hClear
4:53 PM25 °C12.2 °C45 %1016.9 hPa16.1 kmWNW (300°)13 km/hPartly Cloudy
5:53 PM25 °C10.6 °C40 %1017.3 hPa16.1 kmNorth (360°)7.4 km/hPartly Cloudy
6:53 PM24.4 °C11.1 °C43 %1016.9 hPa16.1 kmCalmScattered Clouds
7:53 PM23.3 °C10 °C43 %1016.9 hPa16.1 kmNorth (360°)9.3 km/hClear
8:53 PM20.6 °C11.1 °C54 %1016.9 hPa16.1 kmNE (50°)5.6 km/hClear
9:53 PM15.6 °C11.1 °C75 %1017.6 hPa16.1 kmCalmClear
10:53 PM13.9 °C12.2 °C89 %1018.3 hPa16.1 kmCalmClear
11:53 PM11.7 °C10.6 °C93 %1017.9 hPa16.1 kmCalmClear
Hourly data recorded from KARB, located 0 kilometers away from Ann Arbor, Michigan







STORIES FROM OUR PARTNERS